Regional Weather Roundup
Issued by NWS State College, PA

Home | Current Version | Previous Version | Text Only | Print | Product List | Glossary On
Versions: 1 2 3 4 5 6 7 8 9 10 11 12 13 14 15 16 17 18 19 20 21 22 23 24 25 26 27 28 29 30 31 32 33 34 35 36 37 38 39 40 41 42 43 44 45 46 47 48 49 50
000
ASUS41 KCTP 271510
RWRCTP

REGIONAL WEATHER ROUNDUP
NATIONAL WEATHER SERVICE STATE COLLEGE PA
1000 AM EST TUE JAN 27 2015

Note: "fair" indicates few or no clouds below 12,000 feet with no
significant weather and/or obstructions to visibility.

* = STATION THAT DOES NOT REPORT PRECIPITATION /E.G. RAIN...SNOW...ETC/
    THUNDER OR FOG.

PAZ002>004-007>009-013>016-020>023-029>032-271600-
WESTERN PENNSYLVANIA

CITY           SKY/WX    TMP DP  RH WIND       PRES   REMARKS
ERIE           LGT SNOW  20  15  81 NE10      30.00S WCI   9
MEADVILLE      CLOUDY    18  11  74 N9        29.92R HAZE    WCI   7
FRANKLIN*      CLOUDY    16   9  73 N6        29.91S WCI   7
NEW CASTLE     FLURRIES  18  14  84 N6        29.97R WCI  10
BEAVER COUNTY  LGT SNOW  19  16  86 NW6       29.93R WCI  11
BUTLER*        CLOUDY    19  12  73 NW5       29.92S WCI  13
PITTSBURGH INT LGT SNOW  20  16  84 N10       29.92S WCI   9
PITTSBURGH     LGT SNOW  20  14  77 N6        29.90S WCI  12
INDIANA*       CLOUDY    21  18  86 VRB3      29.91S FOG
LATROBE        LGT SNOW  19  18  93 W7        29.92S WCI  10
WASHINGTON CO* CLOUDY    19  14  79 CALM      29.94R
$$

PAZ004>006-010>012-017>019-024>028-033>037-041-042-045-046-049>053-271600-
CENTRAL PENNSYLVANIA

CITY           SKY/WX    TMP DP  RH WIND       PRES   REMARKS
BRADFORD       LGT SNOW  14   9  80 N8        29.82R VSB 1   WCI   3
DUBOIS         CLOUDY    17  11  77 N8        29.83R WCI   7
CLEARFIELD     LGT SNOW  18  13  80 NW6       29.85R WCI  10
JOHNSTOWN      LGT SNOW  16  14  92 NW12      29.78R FOG     WCI   3
ALTOONA        CLOUDY    21  16  81 NW10      29.82S WCI  10
STATE COLLEGE  CLOUDY    21  16  79 N8        29.84R WCI  12
WILLIAMSPORT   PTSUNNY   22  10  60 W10       29.86R WCI  11
SELINSGROVE    PTSUNNY   24  13  62 N13       29.84S WCI  12
FT INDIANTOWN  CLOUDY    24  14  65 NE6       29.80R
CAPITAL CITY   PTSUNNY   27  18  69 N8        29.82R
HARRISBURG     PTSUNNY   27  19  72 N13       29.81R
YORK           CLOUDY    27  19  72 NW6       29.80R
$$

PAZ038>040-043-044-047-048-054-055-060>062-067>071-271600-
EASTERN PENNSYLVANIA

CITY           SKY/WX    TMP DP  RH WIND       PRES   REMARKS
SCRANTON       CLOUDY    20   6  55 N9        29.78S WCI   9
MOUNT POCONO   PTSUNNY   17   2  51 NW15G26   29.66R WCI   2
ALLENTOWN      CLOUDY    25  11  55 N12       29.77R WCI  14
QUAKERTOWN*    NOT AVBL
READING        PTSUNNY   26  15  63 N13       29.79R WCI  15
LANCASTER      PTSUNNY   26  17  68 N10       29.79R
COATESVILLE    FLURRIES  27  21  80 N10G17    29.76R
POTTSTOWN      CLOUDY    25  15  66 N10       29.78R WCI  15
BLUE BELL      CLOUDY    27  19  74 NW8       29.76R
DOYLESTOWN     LGT SNOW  23  17  78 NW8       29.74S WCI  14
WILLOW GROVE   NOT AVBL
NORTH PHILA    LGT SNOW  27  19  72 N13       29.77R
PHILADELPHIA   FLURRIES  27  21  78 N14       29.77R
$$


USA.gov is the U.S. government's official web portal to all federal, state and local government web resources and services.